Regional Weather Roundup
Issued by NWS

Home | Current Version | Previous Version | Graphics & Text | Print | Product List | Glossary On
Versions: 1 2 3 4 5 6 7 8 9 10 11 12 13 14 15 16 17 18 19 20 21 22 23 24 25 26 27 28 29 30 31 32 33 34 35 36 37 38 39 40 41 42 43 44 45 46 47 48 49 50
000
ASUS43 KLMK 061710
RWRKY
KENTUCKY REGIONAL WEATHER ROUNDUP
NATIONAL WEATHER SERVICE LOUISVILLE KY
100 PM EDT WED MAY 06 2015

NOTE "FAIR" INDICATES FEW OR NO CLOUDS BELOW 12,000 FEET
WITH NO SIGNIFICANT WEATHER AND/OR OBSTRUCTIONS TO VISIBILITY.

KYZ001>023-026-027-061>063-070>075-061800-
WESTERN AND SOUTH CENTRAL KENTUCKY

CITY           SKY/WX    TMP DP  RH WIND       PRES   REMARKS
PADUCAH        MOSUNNY   81  56  42 S6        30.16F
HENDERSON      MOSUNNY   81  55  41 SW6       30.16F
OWENSBORO      MOSUNNY   84  57  39 VRB3      30.19F
HOPKINSVILLE   MOSUNNY   80  58  46 SW8       30.19F
BOWLING GREEN  MOSUNNY   81  56  42 SW7       30.20F
GLASGOW        SUNNY     78  58  50 CALM      30.21F
$$

KYZ024-025-028>034-038-045-046-053-061800-
NORTH CENTRAL KENTUCKY

CITY           SKY/WX    TMP DP  RH WIND       PRES   REMARKS
LOUISVILLE/SDF MOSUNNY   85  55  35 VRB3      30.19F
LOUISVILLE/LOU MOSUNNY   82  53  36 VRB3      30.20F
FORT KNOX      MOSUNNY   83  55  38 NW3       30.18F
$$

KYZ035>037-039>044-047>052-055>060-089>105-061800-
NORTHEAST KENTUCKY

CITY           SKY/WX    TMP DP  RH WIND       PRES   REMARKS
LEXINGTON      MOSUNNY   82  57  42 NE5       30.22F
COVINGTON      MOSUNNY   82  52  35 NW3       30.21F
FRANKFORT      SUNNY     82  52  35 CALM      30.20F
$$

KYZ054-064>069-076>088-106>120-061800-
SOUTHEAST KENTUCKY

CITY           SKY/WX    TMP DP  RH WIND       PRES   REMARKS
JACKSON        SUNNY     81  56  42 VRB3      30.23F
LONDON         MOSUNNY   81  52  36 E8        30.22F
SOMERSET       MOSUNNY   77  54  44 CALM      30.22F
MIDDLESBORO    SUNNY     80  56  43 NE3       30.22F
MONTICELLO     SUNNY     83  58  42 CALM      30.23F
$$



USA.gov is the U.S. government's official web portal to all federal, state and local government web resources and services.